Tracking 31032 objects as of 13-Jul-2025
HD Live streaming from Space Station
objects crossing your sky now

ONEWEB-0586

Track ONEWEB-0586 now!
10-day predictions
ONEWEB-0586 is classified as:


NORAD ID: 54653
Int'l Code: 2022-166M
Perigee: 1,183.4 km
Apogee: 1,186.4 km
Inclination: 87.9 °
Period: 108.9 minutes
Semi major axis: 7555 km
RCS: Unknown
Launch date: December 8, 2022
Source: United Kingdom (UK)
Launch site: AIR FORCE EASTERN TEST RANGE (AFETR)
Your satellite tracking list
Your tracking list is empty




NASA's NSSDC Master Catalog

Two Line Element Set (TLE):
1 54653U 22166M   25193.77709272  .00000010  00000-0 -76969-5 0  9995
2 54653  87.9278 311.7037 0001933 105.8619 254.2728 13.21824598126680
Source of the keplerian elements: AFSPC